Location: Castelbiague
(43.0361°N, 0.9246°E)
Time: 21:55:21
(UTC+00:00)

USA 215 - Pass Details

Date: 24 October 2021
Orbit: 1099 x 1109 km, 123.0° (Epoch: 20 November)

Event Time Altitude Azimuth Distance (km) Brightness Sun altitude
Exits shadow 17:21:14 - 48° (NE) 3,925 5.6 -4.7°
Rises 17:21:14 0° 48° (NE) 3,923 5.6 -4.7°
Reaches altitude 10° 17:23:44 10° 45° (NE) 2,964 5.0 -5.2°
Maximum altitude 17:30:12 65° 326° (NW) 1,201 3.6 -6.3°
Drops below altitude 10° 17:36:39 10° 246° (WSW) 2,961 7.0 -7.5°
Sets 17:39:09 0° 243° (WSW) 3,918 7.8 -7.9°
